Location: Six Mile Lake
(44.9000°N, 79.7170°W)
Time: 09:58:13
(UTC-04:00)

ESTCUBE 1 - Pass Details

Date: 04 July 2022
Orbit: 645 x 657 km, 97.9° (Epoch: 18 August)

Event Time Altitude Azimuth Distance (km) Brightness Sun altitude
Exits shadow 23:50:10 30° 203° (SSW) 1,153 ? -19.0°
Maximum altitude 23:52:00 49° 261° (W) 837 ? -19.2°
Drops below altitude 10° 23:56:22 10° 336° (NNW) 2,061 ? -19.5°
Sets 23:58:39 0° 342° (NNW) 2,978 ? -19.6°
